This is the latest recevied weather packets stored in our database for station/object KC3UTO. If no packets are shown the sender has not sent any weather packets the latest 10 day(s).
| Time | Temp. | Humidity | Pressure | Rain* | Wind** | Luminosity | Snow |
|---|---|---|---|---|---|---|---|
| 1777843486 | 15.56° C | 26% | 1010.9 hPa | 0 mm | - | 99 W/m² | - |
| 1777843184 | 15.56° C | 27% | 1010.8 hPa | 0 mm | - | 157 W/m² | - |
| 1777842881 | 15.56° C | 26% | 1010.9 hPa | 0 mm | - | 184 W/m² | - |
| 1777842576 | 15.56° C | 27% | 1010.8 hPa | 0 mm | - | 75 W/m² | - |
| 1777842273 | 15.56° C | 25% | 1010.9 hPa | 0 mm | - | 89 W/m² | - |
| 1777841968 | 15.56° C | 27% | 1010.8 hPa | 0 mm | - | 92 W/m² | - |
| 1777841665 | 15.56° C | 27% | 1010.9 hPa | 0 mm | - | 331 W/m² | - |
| 1777841361 | 15.56° C | 27% | 1010.9 hPa | 0 mm | - | 367 W/m² | - |
| 1777841059 | 15.56° C | 27% | 1010.8 hPa | 0 mm | - | 139 W/m² | - |
| 1777840756 | 15.56° C | 27% | 1011.1 hPa | 0 mm | - | 139 W/m² | - |
| 1777840453 | 15° C | 28% | 1011 hPa | 0 mm | - | 174 W/m² | - |
| 1777840150 | 15° C | 27% | 1011.1 hPa | 0 mm | - | 99 W/m² | - |
| 1777839848 | 15° C | 27% | 1011.1 hPa | 0 mm | - | 74 W/m² | - |
| 1777839546 | 15° C | 27% | 1011 hPa | 0 mm | - | 74 W/m² | - |
| 1777839243 | 15° C | 28% | 1011.2 hPa | 0 mm | - | 144 W/m² | - |
| 1777838941 | 15° C | 29% | 1011.2 hPa | 0 mm | - | 161 W/m² | - |
| 1777838636 | 15° C | 30% | 1011.2 hPa | 0 mm | - | 109 W/m² | - |
| 1777838334 | 14.44° C | 29% | 1011.5 hPa | 0 mm | - | 95 W/m² | - |
| 1777838030 | 15° C | 29% | 1011.5 hPa | 0 mm | - | 149 W/m² | - |
| 1777837727 | 14.44° C | 29% | 1011.5 hPa | 0 mm | - | 132 W/m² | - |
| 1777837423 | 15° C | 29% | 1011.6 hPa | 0 mm | - | 207 W/m² | - |
| 1777837120 | 14.44° C | 30% | 1011.8 hPa | 0 mm | - | 247 W/m² | - |
| 1777836815 | 14.44° C | 28% | 1011.6 hPa | 0 mm | - | 196 W/m² | - |
| 1777836512 | 14.44° C | 28% | 1011.6 hPa | 0 mm | - | 210 W/m² | - |
| 1777836207 | 14.44° C | 27% | 1011.5 hPa | 0 mm | - | 214 W/m² | - |
* Rain latest hour (hover to see other rain measurements)
** Current wind speed in m/s (hover to see current wind gust speed)